Theta_e
301 307 307 309 310 311 310 310 311 315 318 323 323 323 324 322 315 313 311 312 312 325 330 333 334 334 333 330 332 333 333 333 333 333 332 331 331 331 331 331 331 331 331 331
300 300 303 306 308 312 311 312 311 310 317 321 321 322 322 322 322 316 317 314 314 312 319 329 332 333 334 334 331 332 333 333 333 333 334 333 333 332 332 331 331 331 330 330
298 297 300 303 306 309 313 313 312 311 308 311 319 320 321 320 321 316 315 315 315 310 312 309 316 331 332 333 334 332 332 332 333 333 334 332 332 332 332 332 332 331 331 330
296 296 299 299 304 307 310 311 311 311 311 315 317 318 318 321 321 322 319 317 316 315 312 312 317 326 330 332 333 334 332 332 332 333 333 333 332 332 332 333 332 332 332 332
295 301 303 302 300 304 307 309 311 311 311 312 311 321 315 318 321 320 321 321 318 318 313 311 322 326 329 331 332 333 334 333 332 332 333 333 333 333 333 333 333 333 333 333
298 300 303 303 303 304 304 307 310 311 311 314 312 316 313 318 318 319 318 320 321 316 310 310 314 317 321 327 331 333 333 332 332 332 332 333 333 333 333 334 334 334 334 334
296 298 298 302 303 302 305 305 312 313 313 311 308 313 314 312 314 317 318 319 319 311 306 307 308 310 314 319 325 329 330 328 331 332 333 332 332 332 332 332 332 332 333 332
295 295 297 299 300 303 306 304 310 312 310 309 309 313 311 310 311 307 307 308 310 303 305 306 306 307 311 314 317 319 320 317 318 323 324 323 324 323 322 321 321 323 324 325
295 297 299 299 301 300 301 306 304 309 306 306 306 307 306 306 308 308 309 307 304 304 304 305 304 305 306 308 310 311 311 310 311 311 311 311 311 311 311 311 311 311 312 313
300 300 298 301 301 301 302 304 309 309 310 308 309 307 306 308 309 309 309 308 306 306 306 304 303 302 303 303 304 305 306 306 306 306 307 307 307 307 307 308 307 307 308 308
300 302 300 299 298 303 303 303 305 308 307 311 309 309 304 305 306 308 307 306 306 305 303 302 300 299 300 301 300 301 302 303 303 305 304 303 303 304 303 302 301 301 302 302
299 300 301 297 298 304 305 304 302 304 308 308 306 306 302 302 302 306 305 303 301 300 299 297 296 295 295 296 297 298 298 299 299 299 299 299 298 299 299 298 299 298 299 299
293 293 295 294 301 304 305 304 304 305 305 308 310 304 303 304 304 303 302 300 298 296 295 294 294 293 292 292 294 295 296 295 296 296 296 295 295 296 295 296 296 297 297 297
296 296 298 295 292 299 302 301 305 307 309 306 308 309 304 303 303 301 299 297 296 295 294 293 292 291 290 291 292 292 292 293 293 293 292 293 293 293 293 293 293 294 293 294
292 293 290 296 297 297 299 302 303 304 304 305 306 306 305 303 302 301 298 295 295 294 293 291 290 289 289 289 290 290 290 290 290 291 291 291 291 291 292 292 292 292 292 292
292 291 293 292 298 301 303 299 301 302 303 302 301 301 302 299 298 298 297 296 295 294 292 291 290 289 288 288 288 289 289 289 291 291 290 290 290 290 290 290 290 290 290 290
295 295 292 295 295 296 296 298 296 297 300 300 301 303 301 301 301 299 296 296 295 293 292 291 289 289 288 288 288 289 289 290 290 289 289 289 288 288 288 288 288 288 287 287
296 293 291 293 291 294 296 300 299 299 298 298 300 301 303 303 301 297 296 295 294 292 291 289 288 288 288 288 289 289 289 289 289 288 287 287 286 286 286 285 286 286 286 286
295 295 293 286 281 292 294 296 299 301 300 301 299 301 302 300 300 298 295 294 293 291 290 290 289 289 288 289 289 289 289 288 287 286 285 285 285 285 284 285 285 285 285 285
290 292 294 282 286 289 295 294 297 299 304 302 301 301 300 302 305 301 293 292 291 291 290 289 289 289 289 289 289 288 287 286 285 284 284 284 285 285 285 285 284 283 283 283
291 289 292 291 283 291 291 291 294 302 302 300 300 301 301 304 300 295 292 291 291 291 290 290 290 289 289 288 288 287 285 285 285 284 284 284 284 283 283 282 282 282 282 282
285 283 282 276 281 291 290 293 295 294 295 299 297 296 295 292 292 292 291 290 289 288 289 289 289 289 289 288 287 286 285 285 284 284 283 282 282 282 281 281 281 281 281 280
287 288 286 286 288 289 289 291 292 293 294 296 295 294 292 292 291 290 289 288 288 289 289 289 289 288 287 286 286 285 285 284 284 282 282 281 281 280 280 280 280 280 279 279
286 287 288 288 290 289 290 290 290 292 293 292 293 293 292 292 291 291 289 288 288 289 289 289 288 288 288 288 286 285 284 283 282 281 280 279 279 279 279 279 279 278 279 277
288 287 287 287 290 289 290 289 290 292 292 290 291 292 292 291 290 290 289 288 289 289 290 290 289 289 289 287 285 283 282 281 281 280 279 278 278 278 279 279 278 277 277 277
287 290 291 290 290 290 290 289 289 290 292 290 290 290 289 290 289 287 287 289 290 289 290 288 288 288 288 287 284 283 282 282 280 279 278 278 278 278 278 277 278 278 278 277
Wind_Speed
5 1 6 6 8 6 7 6 8 5 5 4 16 14 17 9 7 7 9 9 9 11 15 20 26 27 27 30 32 35 34 33 31 29 26 23 25 25 23 21 19 19 19 20
4 4 7 6 9 9 14 16 9 9 6 4 4 13 15 14 14 12 15 13 10 6 7 12 23 27 31 33 35 36 37 35 33 32 31 27 26 24 23 20 19 19 18 18
5 5 11 4 8 12 11 14 11 7 9 6 3 9 10 9 10 8 13 8 12 10 9 8 15 27 28 32 38 38 37 36 34 33 30 27 20 20 18 20 20 19 19 19
5 7 9 10 8 4 12 4 10 12 5 4 1 9 17 19 16 18 15 12 10 12 7 6 9 16 25 34 33 35 35 34 33 33 32 30 24 22 24 22 21 21 21 23
7 3 3 8 8 7 8 5 6 11 15 6 6 6 6 9 21 24 17 15 12 14 11 9 8 13 19 24 29 31 32 31 30 31 31 30 25 23 18 17 16 17 20 22
10 1 3 2 2 4 6 6 10 3 8 10 18 9 6 8 18 12 14 19 18 11 9 7 9 12 12 14 19 24 26 25 25 24 26 24 23 20 17 16 17 18 19 19
4 8 6 4 5 6 7 6 4 6 7 12 16 7 22 4 4 5 14 15 16 11 10 9 8 11 15 16 20 23 23 18 18 19 18 17 15 12 9 6 6 7 8 8
2 7 9 8 17 5 9 7 6 8 7 16 5 11 12 6 7 2 1 3 4 7 7 8 7 11 17 19 19 20 20 18 15 15 13 11 9 7 5 4 3 2 2 3
3 7 3 4 5 13 5 9 15 9 3 2 6 25 8 1 2 2 5 2 7 9 6 9 11 14 15 18 18 22 23 22 18 17 14 11 9 6 5 2 1 1 2 4
4 5 5 3 4 9 11 3 6 5 6 5 5 17 15 5 5 3 3 3 5 5 10 9 10 16 19 20 20 22 24 26 23 21 16 15 15 11 10 8 7 5 5 5
6 5 3 3 5 8 7 11 8 4 7 5 2 5 4 11 7 9 7 6 8 8 8 8 11 18 23 23 22 24 25 25 22 24 20 18 18 16 12 11 10 9 8 9
2 4 4 9 5 3 8 6 9 8 6 9 6 9 2 6 5 6 6 7 6 9 11 9 11 15 17 20 23 24 23 25 23 21 19 19 18 18 15 12 11 9 10 8
4 4 4 9 1 2 4 6 12 13 11 19 6 8 7 1 7 7 9 8 9 10 12 10 11 12 14 17 21 24 24 24 23 20 20 19 20 18 16 14 12 11 9 9
1 4 5 7 7 2 4 5 2 7 11 17 12 7 6 7 9 10 9 7 7 7 10 10 9 11 14 19 22 24 23 22 21 20 20 22 20 17 15 13 11 11 10 9
4 5 4 10 14 14 15 14 7 7 9 5 3 19 13 5 7 7 12 12 11 10 9 8 7 9 14 19 22 22 21 20 18 20 22 20 17 14 12 11 10 10 10 10
2 4 2 8 9 12 12 10 12 13 12 10 11 12 5 5 6 3 11 13 12 11 9 9 8 11 13 17 20 19 19 18 17 19 19 16 14 12 12 10 11 10 10 11
3 3 3 5 7 7 7 13 10 4 6 6 8 15 11 6 13 12 11 11 12 10 10 10 8 13 16 17 17 18 16 16 15 17 15 13 12 11 10 10 10 12 13 15
4 2 1 4 4 2 6 3 4 10 15 16 14 9 19 17 12 6 4 8 11 12 9 8 14 18 16 16 16 15 14 13 13 12 11 10 10 10 10 11 13 15 16 18
9 3 3 2 2 8 7 5 5 2 10 11 23 14 10 12 11 3 4 3 6 7 11 16 19 17 16 15 14 13 12 10 9 9 8 9 10 10 12 14 16 17 18 18
4 2 3 2 1 4 3 2 3 3 5 4 5 17 18 16 10 8 8 7 8 15 18 19 17 15 12 11 9 8 8 7 6 5 6 7 9 11 12 12 12 12 14 16
2 2 9 5 4 9 8 6 3 4 5 6 3 13 17 14 2 9 12 7 15 18 19 17 15 13 10 8 7 6 5 4 3 2 3 4 4 4 6 8 10 13 15 17
7 6 4 2 1 8 2 3 2 2 5 2 4 3 7 7 7 13 11 11 12 15 17 15 15 13 10 8 8 8 6 5 4 2 2 2 2 4 6 8 10 12 14 16
3 6 3 9 6 5 1 3 4 3 4 1 4 4 8 8 6 8 9 9 9 18 17 14 12 11 10 10 10 8 6 7 6 6 4 2 2 4 6 8 10 12 12 14
5 4 4 2 7 10 11 7 5 4 4 1 4 6 6 8 9 8 7 7 8 16 16 16 14 14 14 15 15 14 12 11 9 7 4 3 3 2 4 6 9 9 12 13
5 6 5 5 13 9 11 8 6 3 2 4 4 4 6 10 6 7 7 7 15 19 18 19 20 20 21 18 19 17 14 11 9 7 5 4 4 5 5 7 7 11 11 10
8 8 10 8 9 5 4 4 7 6 4 6 8 6 5 6 9 8 8 17 19 19 19 20 22 21 20 18 19 17 15 12 10 8 7 6 6 5 5 8 11 10 9 9
Wind_Direction
348 10 223 260 227 252 279 306 317 334 272 239 229 232 239 231 228 235 203 207 214 214 236 214 216 217 211 216 216 220 218 218 217 219 224 228 233 235 240 244 252 255 260 261
7 270 242 284 290 237 248 260 281 285 252 242 265 249 242 226 227 221 219 221 219 221 203 201 203 211 214 211 215 219 222 220 217 221 223 226 234 240 242 251 254 257 259 262
205 252 349 300 270 260 249 248 249 261 332 268 357 265 239 237 227 220 233 217 214 214 205 197 197 209 208 209 212 214 216 220 220 221 222 220 225 231 236 240 246 252 258 262
245 259 244 261 265 279 264 257 235 232 269 251 167 269 220 223 229 222 218 215 200 213 217 204 202 198 203 213 212 211 214 219 222 221 220 215 210 216 233 241 251 254 256 261
246 274 253 244 239 218 258 277 295 217 228 329 256 263 245 188 228 225 214 213 210 214 194 204 193 190 201 210 210 207 210 215 218 220 221 220 217 227 240 250 258 264 267 270
246 338 254 231 307 267 251 317 278 290 228 239 228 221 211 199 226 219 208 213 214 203 195 179 177 166 168 180 189 191 193 197 207 211 214 222 231 238 245 255 264 272 272 271
311 235 220 167 256 248 200 172 208 225 196 228 192 210 242 277 287 227 215 206 207 190 165 161 166 151 150 156 158 162 172 162 178 191 198 209 223 227 219 213 225 249 269 278
217 314 170 192 206 198 205 194 239 191 202 245 91 225 235 253 201 255 307 276 137 140 143 146 136 142 142 145 151 152 151 143 147 157 164 167 179 182 188 202 203 210 275 296
204 265 264 223 171 191 195 232 248 278 279 314 184 238 310 118 28 16 4 81 165 145 137 131 115 113 124 139 146 150 142 136 138 141 139 139 139 148 137 120 162 329 299 294
275 284 238 216 172 217 224 238 217 206 230 240 227 230 230 183 199 235 234 132 87 96 115 102 96 97 100 113 126 131 134 131 133 125 120 121 118 113 102 102 91 76 66 42
275 261 289 16 210 185 208 241 247 313 216 243 282 249 245 202 210 207 182 143 124 105 91 91 96 98 109 116 116 113 114 117 110 109 119 118 107 105 98 91 82 75 67 47
289 293 263 235 254 235 219 236 228 230 253 238 238 258 16 281 295 132 119 108 93 107 102 93 87 96 98 105 110 110 112 110 107 109 114 105 109 105 97 85 71 63 59 44
313 299 324 330 50 183 222 214 234 243 248 252 249 255 355 143 114 119 121 115 115 110 104 101 93 87 90 94 101 109 111 110 109 116 110 106 95 89 82 75 67 57 50 40
53 257 220 233 232 213 255 239 269 262 231 250 225 291 306 289 153 137 121 111 105 104 113 109 98 94 97 102 106 106 106 106 114 113 105 89 83 77 75 69 60 51 39 29
145 260 226 263 258 256 264 259 243 240 263 249 251 221 257 196 279 163 136 127 120 113 108 104 109 111 108 106 108 108 107 107 107 95 84 77 76 72 65 60 47 37 25 17
294 276 290 287 262 221 254 246 236 238 237 249 262 281 148 134 108 164 144 139 140 140 132 130 127 121 115 115 115 113 108 100 92 84 78 73 66 57 49 38 27 17 7 1
235 277 333 264 337 334 287 244 209 210 204 190 214 224 161 151 165 181 161 154 153 147 142 141 135 128 125 121 120 112 108 96 87 79 72 63 55 46 34 22 9 2 359 356
225 295 266 276 336 270 246 196 180 227 251 225 229 206 191 177 145 142 171 149 148 148 145 140 139 133 130 122 111 107 101 92 82 75 65 53 42 32 19 8 4 360 356 354
222 213 262 269 227 290 290 168 155 271 294 226 217 205 151 132 113 62 153 119 138 139 145 146 145 138 128 117 114 109 102 98 86 71 52 33 21 14 7 2 359 353 345 341
173 241 239 30 255 249 245 195 153 225 256 328 197 159 141 146 156 189 161 131 121 130 140 136 131 125 119 116 116 114 106 102 91 73 42 18 6 359 355 345 339 331 331 331
181 218 227 224 265 282 259 278 156 324 324 325 152 165 152 166 186 134 129 101 133 140 140 137 139 140 140 139 140 132 136 129 99 45 6 352 338 338 331 327 329 331 332 331
178 166 198 91 186 270 178 328 269 282 319 348 78 96 110 108 111 124 120 132 136 137 145 153 152 157 161 168 175 180 188 195 201 225 274 282 313 334 328 327 335 337 333 334
257 202 197 186 221 267 271 253 303 282 277 81 101 98 119 111 114 117 132 143 149 158 161 168 168 171 185 194 202 210 216 218 223 235 240 247 301 329 329 335 336 339 341 344
250 188 221 70 257 248 268 266 211 279 297 182 131 141 130 126 141 126 131 145 160 174 178 181 186 196 209 213 215 218 219 215 223 237 241 258 293 305 318 337 339 337 344 339
202 144 202 263 276 282 271 231 250 243 212 131 117 157 146 136 139 143 156 177 185 187 192 199 206 214 223 221 221 219 220 223 238 247 249 271 293 311 323 333 344 349 352 343
182 197 201 219 223 190 225 215 184 208 209 186 144 133 138 142 154 162 183 192 193 200 207 212 220 227 233 228 223 222 228 235 246 253 256 270 279 291 315 332 341 359 349 332